Baseball 板


LINE

台鋼雄鷹 坎南 IP:5 2/3 NP :87(50-37) R:3 ER:3 H:5 HR:0 K:5 BB:4 ERA:4.76 WHIP:1.59 轉隊後面對老東家的坎南 前五局順風順水沒有失分 第六局面對邦邦中心打線出狀況 安打、保送及暴投 加上孔念恩適時的二壘安打 一局丟掉三分 最後台鋼雖然在九下還有打回分數 但還是沒能逆轉戰局 吞下敗投 台鋼雄鷹 韋宏亮 IP:0 2/3 NP :26(15-11) R:3 ER:3 H:3 HR:0 K:0 BB:1 ERA:13.50 WHIP:3.00 在第九局上三分落後局面上場投球的狀元韋宏亮 與戴培峰對決八顆球送出保送 下一棒短打推進之後 雖然成功解決林岳谷 接著卻被周佳樂、張育成、范國宸連續擊出安打 其中張育成的二壘安打有兩分打點 而范國宸的一壘安打再攻一分 同時也把韋宏亮打退場換上王躍霖 最終今日的投球留下2/3局失三分的紀錄 --



※ 發信站: 批踢踢實業坊(ptt.cc), 來自: 101.10.2.150 (臺灣)
※ 文章網址: https://webptt.com/m.aspx?n=bbs/Baseball/M.1775828890.A.74A.html
1F:推 bower1025: 韋超爛04/10 21:48
※ 編輯: hsuaninteen (101.10.2.150 臺灣), 04/10/2026 21:48:31
2F:噓 melman87: https://i.mopix.cc/5Up5A4.jpg 04/10 21:48
3F:→ hcastray: 不 坎南 04/10 21:48
4F:推 furret: 在紅中手下當牛保重捏 04/10 21:48
5F:→ melman87: 很愛玩嘛 04/10 21:48
6F:→ ash9911911: 今天比較像被60雷到 不會接曲球 04/10 21:48
7F:→ turkiali01: 有點自覺的話 自請下二軍吧..... 04/10 21:48
8F:→ hao94: 紅中再爽啊 04/10 21:49
9F:推 tom80114: 打爆坎南換布坎南 04/10 21:49
10F:推 frozenmoon: 不 坎南 04/10 21:49
11F:推 Gnnnnn111: 爽啦 04/10 21:49
12F:推 pigniposhen: 化布坎南為坎南 讚啦~ 04/10 21:49
13F:推 NoEric: 去年邦棒打羅戈就示範了第一場不要投老東家 04/10 21:49
14F:推 xptx: WHIP 3.00 04/10 21:49
15F:→ s22shadowl: 坎南小衰 04/10 21:49
16F:→ shizukun0103: 紅中:不!坎南 04/10 21:49
17F:→ kji590929: 被捕手雷吧 04/10 21:49
18F:推 agan232002: 爽拉 04/10 21:49
19F:→ hao94: https://i.mopix.cc/RXjJQU.jpg 04/10 21:49
20F:→ Puye: 那局60號在搞吧 一直漏 04/10 21:49
21F:→ justyesung: 難怪人家邦邦不要你QQ 04/10 21:49
22F:推 usuar: 捕手也有點….. 04/10 21:50
23F:推 ricky9696: 嘻嘻,不是很會化布坎南會坎南 04/10 21:50
24F:→ LuLin28: 爽啦 查無不法 嘻嘻 04/10 21:50
25F:推 d8916780: 韋這個業餘球王,在二軍應該也站不穩 04/10 21:50
26F:→ nuturewind: 狀元的打擊率好強 04/10 21:50
27F:→ hunterhsu91: 天罰 04/10 21:50
28F:推 ohiyo104: 不! 坎南 04/10 21:50
29F:推 pie164: 不坎南! 04/10 21:50
30F:→ hy654: 南哥也是蠻雖的 被自家總欸雷 04/10 21:50
31F:推 Currice6677: #化布坎南為坎南 04/10 21:50
32F:→ macair: 60一次搞崩兩個 04/10 21:50
33F:推 sam830219: 抱歉不難 04/10 21:50
34F:推 AceClown: 台鋼去年為了win now選這隻,根本笑死 04/10 21:51
35F:推 Dubufan0528: 查無不法 04/10 21:51
36F:推 huahuatmu: 贏背骨仔 舒服~ 04/10 21:51
37F:→ hao94: 變南崁難看囉 04/10 21:51
38F:→ z030060374: 坎南投1休4可憐喔 04/10 21:51
39F:→ nuturewind: 台鋼小編這個算是贏人還要贏話後的現世報嗎xd 04/10 21:51
40F:→ caseywvt: 富邦不要的 哈哈哈 04/10 21:51
41F:→ n10617: 坎南:來之前怎麼沒先說你們沒有捕手可以接我的球…? 04/10 21:51
42F:推 pink0518: 爽 04/10 21:51
43F:推 z910085zx: 正義必勝 04/10 21:51
44F:→ ash9911911: 去年沒選小寶說不定今年爆掉的是新一喔 04/10 21:51
45F:推 STTKK: 紅中:爽啦 04/10 21:51
46F:推 aimee51126: 是說羅戈轉隊首戰對前東家也是吞敗啦 04/10 21:52
47F:推 wasata: 台鋼選這隻幹嘛 浪費錢 04/10 21:52
48F:推 GakkiMyWife: 去台鋼真的慘 韋高機率養壞 04/10 21:52
49F:推 wolfgofff: 不 坎南了 04/10 21:52
50F:→ hy654: 坎南哪算北骨 是富邦不要他的吧 04/10 21:52
51F:推 QQcandyQQ: 天罰 04/10 21:52
52F:推 jocabyu: 慘,狀元發球機 04/10 21:52
53F:→ GakkiMyWife: 還不下去二軍練練 04/10 21:52
54F:推 Adlem: 韋可以下去了 目前看來是最糟的 04/10 21:52
55F:推 lovelife9999: 不 坎南 04/10 21:53
56F:→ aimee51126: 韋再這樣下去變下個55 04/10 21:53
57F:推 FirePopcorn: 五局賽揚 04/10 21:54
58F:推 virginmary: 60的鍋 04/10 21:54
59F:推 cake10414: 把不可能變 04/10 21:54
60F:→ alonzohorse: 爽啊打爆叛徒 04/10 21:54
61F:推 cdojth590216: 3.00 era還行吧 什麼那是whip 04/10 21:54
62F:推 ewing7517: 台鋼出產發球機 品質超甜 04/10 21:54
63F:推 ring331amy97: 韋爛爆,怎麼不下二軍,每次看他都一肚子火 04/10 21:54
64F:推 fairymomo: 溝皂 04/10 21:55
65F:推 aazhong: 嘻嘻 繼續玩梗阿 04/10 21:55
66F:→ Puye: 韋還是下去練練 感覺現在只適合當敗處 04/10 21:55
67F:→ wolfgofff: 韋快點交易出去換一袋球吧 04/10 21:55
68F:推 passbyks: 史上最水狀元? 04/10 21:56
69F:→ wolfgofff: 球都比你有用多了 04/10 21:56
70F:推 roceskate: 布坎南! 絕對布坎南! 04/10 21:56
71F:推 flytk: 正義 04/10 21:56
72F:推 A820130: 韋狀元是去年選來溫鬧的,時機過了可以下二軍磨練了吧 04/10 21:57
73F:推 wolfgofff: 去年溫鬧 今年來鬧的 04/10 21:58
74F:推 hinesika: 真的坎南了嘻嘻 04/10 21:58
75F:推 Adlem: 坦白說對坎南蠻失望 本來以為可以改更有趣的譯名 04/10 21:58
76F:→ z910085zx: 看看這狀元 再看看石子霖 是誰放槍? 04/10 21:59
77F:→ ericlou: 啾玩諧音梗玩的很爽 04/10 22:00
78F:推 NewPacers: 這款狀元????? 04/10 22:01
79F:推 Diomedes: 讓坎南投1休4,結果在第6局沒力爆開,紅中神調度 04/10 22:01
80F:推 PCC2003: 狀元也太慘了吧 04/10 22:02
81F:推 aimee51126: 第六局捕手問題更大吧 他原本投得好好的 04/10 22:02
82F:→ NoEric: 扣掉打假球的應該可以拼最水狀元 04/10 22:03
83F:推 zxcv4321: 查無不法 04/10 22:05
84F:推 supisces: 總結的不錯 04/10 22:05
85F:推 danman: 富邦悍將打贏富邦叛將 04/10 22:06
86F:推 zeze6666: 爽 正義必勝 04/10 22:07
87F:推 yeeandrew: 打爆他啦 X 04/10 22:11
88F:推 arexne: 紅中選人眼光就有問題 04/10 22:13
89F:→ koye: 水狀元真不意外 04/10 22:14
90F:→ MoWilliams: 正義必勝 04/10 22:16
91F:→ roberttony: 舒服 有夠舒服 04/10 22:18
92F:推 AuroraSkyFox: 小寶能不能丟下去再練練啊 看他投真的是...唉 04/10 22:19
93F:推 rich780501: 嘻嘻 04/10 22:24
94F:推 amos30627: 韋還不下去 不愧是紅中 04/10 22:28
95F:推 fugitive24: 正義必勝 希望橫掃 04/10 22:28
96F:→ roberttony: 韋是大社 選他不是要練的吧 04/10 22:38
97F:推 ktoaoeex: 用狀元籤拿他 感覺頗虧的 04/10 22:46
98F:→ aimee51126: 大社也有分年紀吧 他也才比高卒晚一年而已 04/10 23:04
99F:推 aimee51126: 都不下去二軍練一直操 是要跟爪那兩個大社牛一樣? 04/10 23:06
100F:→ aimee51126: 剛進來程度還不錯 但是沒有養成一直操 後面就爛掉 04/10 23:06
101F:→ ash9911911: 說真的罵台鋼就算了 邦自己不續簽罵人家叛將就過分了 04/10 23:08
102F:推 aimee51126: 羅戈比較符合叛將定義 因為邦有想簽 他自己想走 04/10 23:10
103F:→ angel902037: 富邦不續約就失業了..... 04/10 23:10
104F:→ aimee51126: 但哪一個都一樣 首戰對前東家都吞敗哈哈 04/10 23:10
105F:→ angel902037: 羅戈是富邦還在跟他討價還價,結果人家出價更高 04/10 23:11
106F:推 MoWilliams: 看脆上邦迷超氣台鋼的,這場贏還是繼續鞭 04/10 23:15
107F:推 vic4807: 狀元加油啊 04/10 23:23
108F:→ jk2233: 還有要求抵制跟解散的 04/10 23:24
109F:→ ash9911911: 哪邊都有神經病阿 這邊不是也有罵南蠻跟五隊公敵的 04/10 23:25
110F:→ jk2233: 然後往往都是最關注的,一點風吹草動都不放過 04/10 23:29
111F:推 pink0518: 不討厭布坎南 是討厭違規還要那麼高調的那位 04/10 23:34
112F:推 yangrl: 爽啦 04/10 23:53
113F:推 kevin9964: 假貨 04/11 00:21
114F:推 poor147: 富邦不要他跟台鋼偷跑有什麼關係?當規定是放屁 還想贏 04/11 00:23
115F:→ poor147: 話 04/11 00:23
116F:→ jk2233: 那個是指 是富邦不要他所以沒必要叫他叛將 04/11 00:30
117F:推 prkfcpr: 說叛將就多了,得了便宜還賣乖的是台鋼球團 04/11 00:51
118F:推 Crissangel: 對坎南本人沒意見啊 04/11 01:15
119F:噓 mit1614: 韋 真的爛 04/11 01:48
120F:噓 settier: 再玩啊 04/11 05:28
121F:推 sam30292002: 天罰 04/11 06:54
122F:噓 zxcv4321: 天罰 04/11 07:07
123F:推 t505172003: 天罰 04/11 10:42







like.gif 您可能會有興趣的文章
icon.png[問題/行為] 貓晚上進房間會不會有憋尿問題
icon.pngRe: [閒聊] 選了錯誤的女孩成為魔法少女 XDDDDDDDDDD
icon.png[正妹] 瑞典 一張
icon.png[心得] EMS高領長版毛衣.墨小樓MC1002
icon.png[分享] 丹龍隔熱紙GE55+33+22
icon.png[問題] 清洗洗衣機
icon.png[尋物] 窗台下的空間
icon.png[閒聊] 双極の女神1 木魔爵
icon.png[售車] 新竹 1997 march 1297cc 白色 四門
icon.png[討論] 能從照片感受到攝影者心情嗎
icon.png[狂賀] 賀賀賀賀 賀!島村卯月!總選舉NO.1
icon.png[難過] 羨慕白皮膚的女生
icon.png閱讀文章
icon.png[黑特]
icon.png[問題] SBK S1安裝於安全帽位置
icon.png[分享] 舊woo100絕版開箱!!
icon.pngRe: [無言] 關於小包衛生紙
icon.png[開箱] E5-2683V3 RX480Strix 快睿C1 簡單測試
icon.png[心得] 蒼の海賊龍 地獄 執行者16PT
icon.png[售車] 1999年Virage iO 1.8EXi
icon.png[心得] 挑戰33 LV10 獅子座pt solo
icon.png[閒聊] 手把手教你不被桶之新手主購教學
icon.png[分享] Civic Type R 量產版官方照無預警流出
icon.png[售車] Golf 4 2.0 銀色 自排
icon.png[出售] Graco提籃汽座(有底座)2000元誠可議
icon.png[問題] 請問補牙材質掉了還能再補嗎?(台中半年內
icon.png[問題] 44th 單曲 生寫竟然都給重複的啊啊!
icon.png[心得] 華南紅卡/icash 核卡
icon.png[問題] 拔牙矯正這樣正常嗎
icon.png[贈送] 老莫高業 初業 102年版
icon.png[情報] 三大行動支付 本季掀戰火
icon.png[寶寶] 博客來Amos水蠟筆5/1特價五折
icon.pngRe: [心得] 新鮮人一些面試分享
icon.png[心得] 蒼の海賊龍 地獄 麒麟25PT
icon.pngRe: [閒聊] (君の名は。雷慎入) 君名二創漫畫翻譯
icon.pngRe: [閒聊] OGN中場影片:失蹤人口局 (英文字幕)
icon.png[問題] 台灣大哥大4G訊號差
icon.png[出售] [全國]全新千尋侘草LED燈, 水草

請輸入看板名稱,例如:Soft_Job站內搜尋

TOP